Weather Roundup
Issued by NWS Springfield, MO

Home | Current Version | Previous Version | Text Only | Print | Product List | Glossary On
Versions: 1 2 3 4 5 6 7 8 9 10 11 12 13 14 15 16 17 18 19 20 21 22 23 24 25 26 27 28 29 30 31 32 33 34 35 36 37 38 39 40 41 42 43 44 45 46 47 48 49 50
000
NZUS99 KSGF 281707
HRRSGF

HOURLY WEATHER
NATIONAL WEATHER SERVICE SPRINGFIELD MO
1200 PM CDT WED SEP 28 2016

......SGF CWA......

CITY           SKY/WX    TMP DP  RH WIND       PRES   REMARKS
SPRINGFIELD    SUNNY     73  46  38 N16       29.99R
JOPLIN         SUNNY     73  48  41 N15G23    30.03R
WEST PLAINS    SUNNY     75  51  43 NW9       29.96R
ROLLA          SUNNY     65  47  52 N12       29.97R
OSAGE BEACH    SUNNY     66  46  48 N10G18    30.01R
BRANSON        SUNNY     75  52  43 NW10      29.98S

......SURROUNDING SGF CWA......

CITY           SKY/WX    TMP DP  RH WIND       PRES   REMARKS
CHANUTE        LGT RAIN  71  43  36 N15G23    30.07R
PARSONS        SUNNY     74  43  32 N10G20    30.06R
COFFEYVILLE    SUNNY     76  49  38 N17       30.05R
EMPORIA        SUNNY     68  42  38 N16G24    30.10R
GROVE OK       SUNNY     73  57  56 N6        30.03R
ROGERS AR      SUNNY     73  56  54 N10G16    30.02R
SILOAM SPRINGS SUNNY     75  52  43 N8        30.02R
HARRISON AR    SUNNY     75  53  46 NW10G17   29.98R
NEAR YELLVILLE SUNNY     77  52  41 N10       29.93S

......KANSAS AND MISSOURI......

CITY           SKY/WX    TMP DP  RH WIND       PRES   REMARKS
KANSAS CTY INT MOSUNNY   62  46  55 N15       30.11R
DOWNTOWN KC    SUNNY     65  46  50 N12       30.09R
COLUMBIA       SUNNY     65  46  50 N18       30.02R
SEDALIA        SUNNY     67  45  45 N18       30.05R
ST JOSEPH      MOSUNNY   62  45  53 N17       30.13R
ST LOUIS       MOSUNNY   66  45  46 N14G24    29.95R
SPIRIT OF STL  PTSUNNY   65  47  52 N16       29.95R
KIRKSVILLE     MOSUNNY   61  46  57 N14G24    30.07R
WICHITA        SUNNY     74  47  38 N13       30.12R
TOPEKA         SUNNY     63  47  55 N12G24    30.12R
OLATHE         SUNNY     63  45  51 N20       30.09R

......TENNESSEE......

CITY           SKY/WX    TMP DP  RH WIND       PRES   REMARKS
MEMPHIS        SUNNY     83  52  34 SW12      29.93F
NASHVILLE      MOSUNNY   79  47  32 S15G23    29.91F

......ARKANSAS.......

CITY           SKY/WX    TMP DP  RH WIND       PRES   REMARKS
FAYETTEVILLE   SUNNY     75  56  51 VRB6      30.00S
FT SMITH       SUNNY     81  49  32 W13       29.97S
LITTLE ROCK    SUNNY     84  54  35 SW9       29.95F

......OKLAHOMA.......

CITY           SKY/WX    TMP DP  RH WIND       PRES   REMARKS
TULSA          SUNNY     82  55  39 N12       30.01R
PONCA CITY     SUNNY     81  52  36 NE21      30.05R
MCALESTER      MOSUNNY   84  52  33 SW7       30.01F
OKLAHOMA CITY  MOSUNNY   80  52  37 N9        30.06S

......IOWA............

CITY           SKY/WX    TMP DP  RH WIND       PRES   REMARKS
DES MOINES     CLOUDY    58  47  66 NW13      30.12R
QUAD CITIES    CLOUDY    58  48  69 NW17      29.99R

......ILLINOIS........

CITY           SKY/WX    TMP DP  RH WIND       PRES   REMARKS
QUINCY         MOSUNNY   59  44  57 N15G22    30.01R
CHICAGO        LGT RAIN  56  49  77 NE9       29.91R




USA.gov is the U.S. government's official web portal to all federal, state and local government web resources and services.